• In Hungary
  • List of Countries
  • For 7 days
  • Water Temperature
  • Satellite Maps
  • Weather Map
  • News
  • Weather Widgets
  • user-avatar
    Login

    Hourly Weather Kulganino

    Today, 27 May, Sunday

    Time Temperature Precipitation Wind Pressure Humidity
    00:00 -1°C° 0 mm 2 mps 718 mmHg 68%
    01:00 -1°C° 0 mm 2 mps 718 mmHg 69%
    02:00 -1°C° 0 mm 2 mps 719 mmHg 69%
    03:00 0°C° 0 mm 1 mps 719 mmHg 69%
    04:00 0°C° 0 mm 1 mps 719 mmHg 68%
    05:00 +1°C° 0 mm 2 mps 719 mmHg 61%
    06:00 +4°C° 0 mm 2 mps 719 mmHg 54%
    07:00 +5°C° 0 mm 3 mps 720 mmHg 46%
    08:00 +8°C° 0 mm 3 mps 720 mmHg 44%
    09:00 +8°C° 0 mm 4 mps 719 mmHg 42%
    10:00 +11°C° 0 mm 4 mps 719 mmHg 40%
    11:00 +12°C° 0 mm 5 mps 719 mmHg 40%
    12:00 +13°C° 0 mm 5 mps 719 mmHg 41%
    13:00 +14°C° 0 mm 5 mps 718 mmHg 41%
    14:00 +14°C° 0 mm 5 mps 718 mmHg 43%
    15:00 +14°C° 0 mm 6 mps 717 mmHg 45%
    16:00 +15°C° 0 mm 6 mps 717 mmHg 47%
    17:00 +14°C° 0 mm 6 mps 717 mmHg 52%
    18:00 +13°C° 0 mm 5 mps 716 mmHg 57%
    19:00 +12°C° 0 mm 5 mps 716 mmHg 62%
    20:00 +10°C° 0 mm 5 mps 715 mmHg 66%
    21:00 +9°C° 0 mm 5 mps 715 mmHg 71%
    22:00 +8°C° 0 mm 5 mps 715 mmHg 75%
    23:00 +8°C° 0 mm 6 mps 714 mmHg 76%

    Tomorrow, 28 May, Monday

    Time Temperature Precipitation Wind Pressure Humidity
    00:00 +7°C° 0 mm 6 mps 713 mmHg 76%
    01:00 +7°C° 0 mm 6 mps 712 mmHg 77%
    02:00 +7°C° 0 mm 6 mps 711 mmHg 78%
    03:00 +7°C° 0 mm 6 mps 711 mmHg 78%
    04:00 +6°C° 0 mm 7 mps 710 mmHg 78%
    05:00 +6°C° 0.1 mm 7 mps 709 mmHg 76%
    06:00 +7°C° 0.1 mm 8 mps 709 mmHg 74%
    07:00 +8°C° 0.1 mm 9 mps 708 mmHg 72%
    08:00 +7°C° 0.6 mm 8 mps 708 mmHg 78%
    09:00 +6°C° 0.6 mm 7 mps 708 mmHg 83%
    10:00 +7°C° 0.6 mm 6 mps 708 mmHg 88%
    11:00 +7°C° 0.1 mm 6 mps 708 mmHg 83%
    12:00 +8°C° 0.1 mm 5 mps 709 mmHg 78%
    13:00 +9°C° 0.1 mm 5 mps 709 mmHg 73%
    14:00 +10°C° 0.5 mm 4 mps 709 mmHg 72%
    15:00 +10°C° 0.5 mm 4 mps 709 mmHg 72%
    16:00 +10°C° 0.5 mm 4 mps 709 mmHg 71%
    17:00 +9°C° 0.6 mm 3 mps 710 mmHg 76%
    18:00 +8°C° 0.6 mm 3 mps 710 mmHg 80%
    19:00 +7°C° 0.6 mm 2 mps 710 mmHg 85%
    20:00 +6°C° 0.3 mm 2 mps 710 mmHg 87%
    21:00 +6°C° 0.3 mm 2 mps 710 mmHg 89%
    22:00 +5°C° 0.3 mm 2 mps 711 mmHg 92%
    23:00 +4°C° 0.1 mm 2 mps 711 mmHg 92%

    Day after tomorrow, 29 May, Tuesday

    Time Temperature Precipitation Wind Pressure Humidity
    00:00 +3°C° 0.1 mm 2 mps 711 mmHg 92%
    01:00 +2°C° 0.1 mm 2 mps 711 mmHg 92%
    02:00 +2°C° 0 mm 2 mps 711 mmHg 92%
    03:00 +1°C° 0 mm 2 mps 711 mmHg 92%
    04:00 -1°C° 0 mm 2 mps 711 mmHg 92%
    05:00 0°C° 0 mm 3 mps 711 mmHg 86%
    06:00 +2°C° 0 mm 3 mps 712 mmHg 81%
    07:00 +3°C° 0 mm 4 mps 712 mmHg 75%
    08:00 +4°C° 0 mm 4 mps 712 mmHg 65%
    09:00 +6°C° 0 mm 4 mps 712 mmHg 54%
    10:00 +7°C° 0 mm 5 mps 712 mmHg 44%
    11:00 +7°C° 0.1 mm 5 mps 712 mmHg 44%
    12:00 +8°C° 0.1 mm 5 mps 712 mmHg 43%
    13:00 +8°C° 0.1 mm 5 mps 711 mmHg 42%
    14:00 +8°C° 0.1 mm 5 mps 711 mmHg 45%
    15:00 +7°C° 0.1 mm 5 mps 711 mmHg 47%
    16:00 +7°C° 0.1 mm 5 mps 711 mmHg 49%
    17:00 +7°C° 0.1 mm 4 mps 711 mmHg 55%
    18:00 +6°C° 0.1 mm 4 mps 711 mmHg 60%
    19:00 +5°C° 0.1 mm 3 mps 711 mmHg 66%
    20:00 +3°C° 0 mm 3 mps 711 mmHg 74%
    21:00 +3°C° 0 mm 2 mps 711 mmHg 83%
    22:00 +1°C° 0 mm 2 mps 711 mmHg 92%
    23:00 +1°C° 0 mm 2 mps 711 mmHg 93%

    30 May, Wednesday

    Time Temperature Precipitation Wind Pressure Humidity
    00:00 +1°C° 0 mm 1 mps 710 mmHg 94%
    01:00 +1°C° 0 mm 1 mps 710 mmHg 95%
    02:00 +1°C° 0 mm 1 mps 710 mmHg 95%
    03:00 +1°C° 0 mm 1 mps 710 mmHg 95%
    04:00 +1°C° 0 mm 1 mps 710 mmHg 96%
    05:00 +2°C° 0 mm 2 mps 710 mmHg 91%
    06:00 +3°C° 0 mm 2 mps 710 mmHg 86%
    07:00 +5°C° 0 mm 2 mps 711 mmHg 81%
    08:00 +7°C° 0 mm 3 mps 711 mmHg 75%
    09:00 +8°C° 0 mm 3 mps 711 mmHg 68%
    10:00 +10°C° 0 mm 4 mps 711 mmHg 61%
    11:00 +11°C° 0 mm 4 mps 710 mmHg 59%
    12:00 +12°C° 0 mm 4 mps 710 mmHg 57%
    13:00 +13°C° 0 mm 5 mps 710 mmHg 55%
    14:00 +12°C° 0.3 mm 5 mps 709 mmHg 65%
    15:00 +10°C° 0.3 mm 5 mps 709 mmHg 76%
    16:00 +10°C° 0.3 mm 5 mps 708 mmHg 86%
    17:00 +10°C° 0.2 mm 5 mps 708 mmHg 87%
    18:00 +12°C° 0.2 mm 5 mps 707 mmHg 88%
    19:00 +12°C° 0.2 mm 5 mps 707 mmHg 90%
    20:00 +12°C° 0.1 mm 5 mps 707 mmHg 90%
    21:00 +10°C° 0.1 mm 5 mps 706 mmHg 91%
    22:00 +10°C° 0.1 mm 5 mps 706 mmHg 91%
    23:00 +10°C° 0 mm 6 mps 705 mmHg 91%

    31 May, Thursday

    Time Temperature Precipitation Wind Pressure Humidity
    00:00 +10°C° 0 mm 6 mps 705 mmHg 92%
    01:00 +10°C° 0 mm 7 mps 704 mmHg 92%
    02:00 +10°C° 0.1 mm 7 mps 704 mmHg 92%
    03:00 +10°C° 0.1 mm 7 mps 704 mmHg 91%
    04:00 +11°C° 0.1 mm 7 mps 703 mmHg 91%
    05:00 +11°C° 0.4 mm 7 mps 704 mmHg 92%
    06:00 +11°C° 0.4 mm 7 mps 704 mmHg 92%
    07:00 +11°C° 0.4 mm 7 mps 704 mmHg 92%
    08:00 +12°C° 0.2 mm 7 mps 704 mmHg 90%
    09:00 +12°C° 0.2 mm 7 mps 704 mmHg 87%
    10:00 +12°C° 0.2 mm 7 mps 705 mmHg 85%
    11:00 +14°C° 0.3 mm 7 mps 705 mmHg 82%
    12:00 +15°C° 0.3 mm 7 mps 705 mmHg 80%
    13:00 +15°C° 0.3 mm 7 mps 705 mmHg 77%
    14:00 +15°C° 0.3 mm 7 mps 705 mmHg 79%
    15:00 +14°C° 0.3 mm 6 mps 705 mmHg 81%
    16:00 +14°C° 0.3 mm 6 mps 705 mmHg 84%
    17:00 +13°C° 0.5 mm 5 mps 706 mmHg 86%
    18:00 +11°C° 0.5 mm 4 mps 706 mmHg 89%
    19:00 +10°C° 0.5 mm 4 mps 706 mmHg 91%
    20:00 +9°C° 0.1 mm 3 mps 707 mmHg 92%
    21:00 +7°C° 0.1 mm 3 mps 707 mmHg 93%
    22:00 +5°C° 0.1 mm 3 mps 708 mmHg 93%
    23:00 +5°C° 0 mm 2 mps 708 mmHg 93%

    1 June, Friday

    Time Temperature Precipitation Wind Pressure Humidity
    00:00 +4°C° 0 mm 2 mps 709 mmHg 93%
    01:00 +3°C° 0 mm 2 mps 709 mmHg 93%
    02:00 +4°C° 0 mm 1 mps 709 mmHg 93%
    03:00 +4°C° 0 mm 1 mps 710 mmHg 93%
    04:00 +3°C° 0 mm 1 mps 710 mmHg 93%
    05:00 +4°C° 0 mm 1 mps 711 mmHg 88%
    06:00 +6°C° 0 mm 1 mps 712 mmHg 82%
    07:00 +7°C° 0 mm 1 mps 712 mmHg 77%
    08:00 +8°C° 0 mm 1 mps 713 mmHg 66%
    09:00 +10°C° 0 mm 1 mps 713 mmHg 55%
    10:00 +12°C° 0 mm 2 mps 714 mmHg 45%
    11:00 +13°C° 0 mm 1 mps 714 mmHg 42%
    12:00 +14°C° 0 mm 1 mps 714 mmHg 38%
    13:00 +15°C° 0 mm 1 mps 714 mmHg 35%
    14:00 +16°C° 0 mm 1 mps 714 mmHg 35%
    15:00 +16°C° 0 mm 1 mps 714 mmHg 34%
    16:00 +16°C° 0 mm 2 mps 714 mmHg 34%
    17:00 +15°C° 0 mm 2 mps 714 mmHg 41%
    18:00 +14°C° 0 mm 2 mps 714 mmHg 49%
    19:00 +13°C° 0 mm 2 mps 714 mmHg 56%
    20:00 +11°C° 0 mm 1 mps 714 mmHg 62%
    21:00 +10°C° 0 mm 1 mps 714 mmHg 68%
    22:00 +8°C° 0 mm 1 mps 714 mmHg 73%
    23:00 +8°C° 0 mm 1 mps 714 mmHg 75%
    Show more